CST,Max TemperatureF,Mean TemperatureF,Min TemperatureF,Max Dew PointF,MeanDew PointF,Min DewpointF,Max Humidity, Mean Humidity, Min Humidity, Max Sea Level PressureIn, Mean Sea Level PressureIn, Min Sea Level PressureIn, Max VisibilityMiles, Mean VisibilityMiles, Min VisibilityMiles, Max Wind SpeedMPH, Mean Wind SpeedMPH, Max Gust SpeedMPH,PrecipitationIn, CloudCover, Events, WindDirDegrees
2013-2-1,44,34,24,34,19,11,78,59,40,30.48,30.38,30.22,10,10,10,23,7,30,0.00,2,,325
2013-2-2,45,35,25,39,31,19,100,80,60,30.35,30.21,30.13,10,6,0,17,5,22,0.10,5,Fog-Rain-Snow,183
2013-2-3,56,42,28,38,29,26,100,68,35,30.17,30.12,30.09,10,6,0,20,7,25,0.00,1,Fog,30
2013-2-4,52,41,30,37,32,27,92,67,41,30.13,30.05,29.96,10,10,10,10,4,13,T,7,Rain,156
2013-2-5,64,54,43,47,43,36,93,73,52,30.06,30.00,29.95,10,9,4,9,3,12,0.01,4,Rain,178
2013-2-6,66,51,36,43,38,33,100,66,31,30.21,30.13,30.07,10,4,0,8,2,10,0.00,5,Fog,77
2013-2-7,60,54,48,50,46,38,96,78,59,30.09,30.00,29.94,10,10,7,20,7,24,0.03,7,Rain,125
2013-2-8,50,42,34,48,41,30,100,83,65,30.29,30.11,29.91,10,7,1,20,8,55,0.38,6,Rain,6
2013-2-9,60,46,32,35,31,28,89,61,32,30.34,30.25,30.17,10,10,9,12,6,15,0.00,4,,78
2013-2-10,60,54,47,57,46,34,100,75,50,30.17,30.02,29.91,10,8,1,25,12,31,0.55,6,Rain-Thunderstorm,142
2013-2-11,61,53,45,59,48,38,100,80,59,30.20,30.12,30.03,10,9,2,12,4,15,0.03,8,Rain,265
2013-2-12,52,47,41,42,37,31,92,69,46,30.17,30.00,29.77,10,9,4,13,6,15,0.38,6,Rain,75
2013-2-13,47,43,39,45,41,35,93,85,76,30.04,29.85,29.70,10,8,2,21,7,25,0.05,8,Rain,269
2013-2-14,59,46,32,40,36,32,96,70,43,30.11,30.06,30.03,10,9,3,13,4,17,0.00,1,,206
2013-2-15,58,46,34,41,35,29,92,68,43,30.13,30.10,30.06,10,10,10,17,6,21,0.00,3,,353
2013-2-16,42,35,27,25,18,15,75,56,37,30.25,30.17,30.11,10,10,8,26,10,31,T,4,Snow,332
2013-2-17,49,35,21,24,18,11,84,55,26,30.33,30.26,30.22,10,10,10,10,4,14,0.00,2,,151
2013-2-18,62,48,33,44,31,20,61,49,36,30.27,30.12,29.93,10,10,3,31,14,38,0.28,4,Rain,162
2013-2-19,53,43,33,48,35,21,100,66,32,30.25,30.09,29.93,10,9,5,20,10,25,0.18,4,Rain,277
2013-2-20,39,33,27,25,21,18,78,63,48,30.31,30.25,30.19,10,10,10,14,7,17,T,6,Rain,17
2013-2-21,56,44,31,48,32,18,93,60,26,30.19,30.02,29.84,10,8,2,23,10,28,0.93,7,Rain,91
2013-2-22,53,50,47,49,47,45,100,92,83,30.08,30.00,29.93,10,8,4,24,8,25,0.11,8,Rain,124
2013-2-23,53,46,39,47,44,34,100,86,71,30.03,29.97,29.90,10,6,2,8,3,9,0.03,7,Rain,344
2013-2-24,60,47,33,33,31,29,89,61,33,30.10,30.03,29.96,10,10,9,12,5,13,0.00,1,,34
2013-2-25,61,50,39,45,38,29,86,64,42,29.95,29.79,29.54,10,10,8,35,15,44,0.05,6,Rain,120
2013-2-26,51,47,42,46,40,33,100,83,65,29.81,29.59,29.46,10,9,2,32,15,41,0.18,8,Rain-Thunderstorm,201
2013-2-27,56,49,41,38,34,31,76,63,50,29.95,29.89,29.83,10,10,10,17,10,24,0.00,6,,277
2013-2-28,42,39,36,34,28,25,73,66,59,30.08,30.01,29.90,10,10,10,20,10,26,0.00,7,,303